Weather in Klepikovo

Russia / Tyumen Oblast     55°57′35″N   69°27′13″E
temp.,
°C
wind,
m/s
gust,
m/s
humid.,
%
clouds,
%
prec.,
mm/h
press.,
hPa
HPBL,
m
19 september, sun
sun1923:00+4wsw2494100 0.6 100394
02:00+3w37945 0.1 1003180
05:00+1w411926 0.1 1004291
08:00+2w7118491 0.0 1005643
11:00+4w71068100 0.0 10051358
14:00+5w81173100 0.2 10061186
17:00+3w61196100 0.6 1007894
20:00+3w71295100 0.6 10081008
20 september, mon
mon2023:00+3w7118669 0.7 1009962
02:00+2wnw61188100 0.1 1010931
05:00+2wnw71290100 0.1 1012743
08:00+3nw71181100 0.0 1013966
11:00+3wnw61095100 0.2 1015848
14:00+5nw71075100 0.3 10171223
17:00+4nw6983100 0.4 1019786
20:00+3nw51092100 0.1 1020733
21 september, tue
tue2123:00+2nnw5891100 0.1 1022748
02:00+2nw5996100 0.3 1022588
05:00+2nw4894100 0.3 1024512
08:00+3nw588399 0.1 1025751
11:00+4nw566999 0.3 10251063
14:00+4nw6762100 0.1 10251308
17:00+3nw4662100 0.1 10251213
20:00+2wnw2567100 0.0 1025515
22 september, wed
wed2223:00+2wsw2470100 0.0 1024140
02:00+1wsw3573100 0.0 1023141
05:00+1wsw257673 0.0 1023125
08:00+3wsw356923 0.0 1022213
11:00+8w454688 0.0 1021964
14:00+10nw554575 0.0 10201668
17:00+7n6763100 0.0 1021675
20:00+5nnw3771100 0.0 1023463
23 september, thu
thu2323:00+5nw3678100 0.1 1023308
02:00+3nnw2591100 0.0 1023184
05:00+3nnw3592100 0.1 1024640
08:00+2nne4794100 0.3 1025374
11:00+6n565689 0.3 10261408
14:00+6n6654100 0.1 10271389
17:00+4nne676136 0.1 1029948
20:00+3nne465794 0.0 1031594